Location: Pilipovskiye Korichintsy
(49.1833°N, 27.4667°E)
Time: 12:39:03
(UTC+00:00)

CBERS-1 - Pass Details

Date: 14 July 2020
Orbit: 770 x 777 km, 98.6° (Epoch: 07 August)

Event Time Altitude Azimuth Distance (km) Brightness Sun altitude
Rises 00:50:34 0° 12° (NNE) 3,270 8.6 -11.3°
Reaches altitude 10° 00:52:54 10° 11° (N) 2,338 7.6 -11.1°
Maximum altitude 00:58:02 70° 289° (WNW) 828 4.1 -10.6°
Enters shadow 01:02:41 12° 207° (SSW) 2,151 5.7 -10.1°
